Location: Wildcat Hills Observatory
(41.6350°N, 103.6812°W)
Time: 08:17:40
(UTC-07:00)

Daily predictions for brighter satellites

Satellite Brightness Start Highest point End
(mag) Time Altitude Azimuth Time Altitude Azimuth Time Altitude Azimuth
Cosmos 1980 4.1 17:24:03 10° SSW 17:29:41 67° WNW 17:35:22 10° NNE
CENTAUR R/B 4.1 17:26:07 10° W 17:31:36 30° NW 17:37:41 10° NNE
Cosmos 1151 Rocket 3.3 17:31:50 10° NNW 17:36:07 73° W 17:40:24 10° S
Resurs 01 Rocket 3.5 17:38:01 10° ENE 17:39:16 11° ENE 17:40:31 10° NE
Cosmos 1184 Rocket 4.2 17:36:57 10° SE 17:39:30 20° E 17:42:02 10° NE
Cosmos 2058 2.8 17:37:04 10° S 17:41:10 81° E 17:45:16 10° N
MONITOR-E 4.2 17:39:02 10° SSE 17:42:09 61° ENE 17:45:17 10° N
Cosmos 1726 2.9 17:38:35 10° NNW 17:42:18 57° W 17:46:00 10° S
Cosmos 2219 Rocket 3.7 17:39:45 10° WSW 17:44:51 34° WNW 17:49:58 10° N
USA 229 DEB 4.2 17:38:51 10° S 17:45:06 39° ESE 17:51:27 10° NE
USA 229 4.2 17:38:57 10° S 17:45:12 39° ESE 17:51:32 10° NE
Meteor 1-11 4.3 17:42:34 10° S 17:48:16 90° SE 17:54:05 10° N
FREGAT/IRIS 4.3 17:47:07 10° ESE 17:49:00 15° ENE 17:50:54 10° NNE
Iridium 4 Rocket 4.3 17:47:16 10° SE 17:50:22 19° E 17:53:23 10° NE
Cosmos 1461 3.0 17:47:02 10° SW 17:51:13 77° WNW 17:55:18 10° NNE
Lacrosse 5 rocket 3.3 17:48:09 10° WNW 17:51:32 30° SW 17:55:03 10° S
Tiangong 1 3.1 17:50:39 10° S 17:52:35 16° SSE 17:54:17 11° ESE
Cosmos 2279 Rocket 4.0 17:46:20 10° N 17:52:35 86° E 17:58:49 10° S
CZ-4C R/B 4.5 17:49:41 10° N 17:52:50 13° NNE 17:56:08 10° NE
Cosmos 1242 Rocket 4.0 17:51:08 10° NNE 17:53:25 16° ENE 17:55:41 10° ESE
Cosmos 304 Rocket 3.8 17:48:59 10° SSW 17:53:48 86° WNW 17:58:38 10° NNE
Cosmos 1455 2.6 17:52:21 10° N 17:55:57 38° ENE 17:59:32 10° SSE
Cosmos 2333 Rocket 3.6 17:50:51 10° WSW 17:56:01 36° WNW 18:01:13 10° N
BREEZE-M DEB (TANK) 2.0 17:55:11 10° WSW 17:57:54 45° NNW 17:59:21 17° NE
Aureole 1 Rocket 4.3 17:53:36 10° S 17:58:51 46° E 18:05:38 10° NNE
Cosmos 1805 Rocket 3.5 17:54:53 10° S 17:59:19 75° E 18:03:47 10° NNE
Cosmos 1356 Rocket 3.3 17:56:25 10° S 18:00:19 57° E 18:04:16 10° NNE
Cosmos 2278 Rocket 3.8 17:55:43 10° NW 18:00:56 38° WSW 18:06:07 10° S
SKYMED 2 3.5 17:58:29 10° NNE 18:02:51 79° ESE 18:07:11 10° S
Cosmos 2242 Rocket 4.1 18:03:07 10° N 18:07:16 37° ENE 18:11:24 10° SE
Coronas F rocket 1.7 18:05:47 10° SSE 18:07:58 31° E 18:08:11 31° E
Sich 1 3.0 18:05:36 10° S 18:09:58 63° E 18:14:22 10° NNE
Thor Agena Rocket 4.5 18:05:20 10° N 18:10:22 49° WNW 18:15:19 10° SW
Cosmos 1538 Rocket 4.0 18:06:04 10° SSW 18:11:22 88° ESE 18:16:46 10° NNE
Cosmos 1703 3.4 18:07:52 10° SSW 18:11:45 75° W 18:15:39 10° N
Nadezhda 4 Rocket 4.0 18:05:42 10° S 18:11:53 64° E 18:18:08 10° NNE
BREEZE M DEB (TANK) 1.2 18:10:01 10° WNW 18:12:32 76° SSW 18:13:45 22° SE
Cosmos 923 Rocket 4.2 18:14:18 10° S 18:19:13 46° ESE 18:23:24 14° NE
SJ-6B 3.1 18:15:59 10° SSE 18:19:55 49° ENE 18:23:57 10° N
Cosmos 1633 Rocket 2.9 18:17:30 10° S 18:21:54 75° E 18:26:17 10° NNE
Cosmos 2237 Rocket 4.0 18:20:04 10° WSW 18:24:51 28° NW 18:29:41 10° N
Cosmos 1680 Rocket 3.9 18:20:24 10° S 18:25:14 39° ESE 18:28:12 21° NE
Cosmos 2369 Rocket 3.0 18:23:03 10° N 18:27:52 28° NE 18:28:57 26° ENE
BREEZE-M DEB (TANK) 2.6 18:27:29 10° SSW 18:29:02 35° SSE 18:29:02 35° SSE
SL-16 R/B 3.0 18:28:20 10° SW 18:33:49 51° WNW 18:39:21 10° NNE
Lacrosse 5 3.7 18:31:29 10° NNW 18:34:36 16° NNE 18:35:34 15° NNE
Cosmos 1092 Rocket 3.9 18:29:03 10° S 18:35:20 70° E 18:41:39 10° NNE
NOSS 3-1 (C) 4.0 18:31:11 10° S 18:36:12 32° ESE 18:37:28 29° E
Abrixas 4.2 18:35:30 10° WNW 18:37:52 22° N 18:37:53 22° N
Meteor 1-28 Rocket 4.1 18:36:30 10° N 18:40:07 49° WNW 18:43:43 10° SSW
ALOS 2.4 18:36:03 10° SSE 18:40:32 49° ENE 18:45:03 10° N
Cosmos 773 Rocket 4.1 18:37:20 10° SSW 18:42:30 74° WNW 18:47:44 10° NNE
BREEZE-M DEB (TANK) 2.8 18:42:38 10° W 18:44:51 41° NNW 18:44:55 40° NNW
Cosmos 1862 Rocket 3.5 18:41:37 10° N 18:45:56 55° E 18:50:10 10° SSE
ATLAS 3B R/B 4.4 18:42:51 10° NNW 18:46:29 14° NNE 18:47:34 14° NNE
Cosmos 2084 Rocket 4.3 18:43:27 10° NNW 18:45:56 29° NNE 18:45:56 29° NNE
USA 215 3.3 18:44:05 26° ESE 18:47:54 64° NE 18:54:23 10° NW
Genesis I 4.4 18:45:23 10° S 18:47:45 27° SSE 18:47:45 27° SSE
Cosmos 292 Rocket 3.6 18:45:49 10° SSW 18:50:34 81° ESE 18:53:00 29° NNE
COSMO-SKYMED 1 4.4 18:46:55 10° N 18:50:46 31° WNW 18:54:35 10° SW
METEOR-M 4.4 18:45:34 10° S 18:50:54 71° WSW 18:56:16 10° NNW
FENGYUN 3A 3.5 18:47:52 10° SSE 18:53:10 65° ENE 18:58:31 10° N
CZ-3A R/B 2.8 18:48:50 10° NW 18:53:28 83° SW 19:00:28 10° SE
Cosmos 2195 Rocket 4.3 18:51:25 10° S 18:57:28 68° E 19:03:35 10° NNE
Cosmos 1869 4.0 18:55:50 10° NNW 18:59:47 55° W 19:03:44 10° S
Cosmos 2112 Rocket 3.8 18:56:50 10° S 19:02:01 74° ESE 19:03:43 43° NNE
Lacrosse 4 Rocket 2.5 19:01:42 10° NW 19:05:32 42° WSW 19:09:22 10° S
Cosmos 1933 Rocket 3.7 19:06:07 10° SSW 19:10:33 71° W 19:12:41 30° N
Cosmos 1943 3.2 19:05:07 10° S 19:10:30 56° ESE 19:10:30 56° ESE
ATLAS 5 CENTAUR R/B 3.4 19:07:02 10° NNW 19:11:05 29° NNE 19:11:05 29° NNE
Resurs 01 Rocket 1.6 19:10:39 10° S 19:15:06 79° WSW 19:19:34 10° NNW
Cosmos 1417 Rocket 4.3 19:17:36 10° N 19:23:49 77° E 19:29:56 10° SSE
Tiangong 1 4.1 19:25:21 10° WSW 19:25:53 14° WSW 19:25:53 14° WSW
Cosmos 1943 Rocket 3.7 19:23:52 10° N 19:26:07 23° N 19:26:07 23° N
Spot 2 Rocket 3.9 19:27:01 10° S 19:31:59 59° WSW 19:36:58 10° NNW
Cosmos 1655 Rocket 4.0 19:30:21 10° S 19:36:44 81° W 19:43:07 10° N
CZ-4C R/B 3.8 19:37:08 10° NNW 19:41:36 32° NNE 19:41:36 32° NNE
NOSS 3-1 (A) 3.9 19:43:33 10° SSW 19:47:36 49° SSW 19:47:36 49° SSW
Cosmos 2369 Rocket 3.4 20:06:43 10° NW 20:10:49 39° WNW 20:10:49 39° WNW
Lacrosse 5 4.4 20:14:04 10° NW 20:14:47 14° NNW 20:14:47 14° NNW
USA 215 4.3 20:31:27 38° WSW 20:31:27 38° WSW 20:37:08 10° WNW
